User: anonymous   Login
Location: Montague
(41.3030°N, 74.7940°W)
Time: 22:47:18
(UTC-05:00)
Language:

Cosmos 1461 - Orbit

View from above orbital plane
View from above orbital plane
View from above satellite
View from above satellite

Ground track
Ground track

The orbit data is extracted from the following two-line orbital elements,

1 14064U 83044A   15024.23373825  .00001440  00000-0  14984-3 0  7603
2 14064 065.0042 107.3552 0101981 022.2385 338.3104 14.90271958592777
Epoch (UTC): 24 January 2015 05:36:34
Eccentricity: 0.0101981
inclination: 65.0042°
perigee height: 526 km
apogee height: 668 km
right ascension of ascending node: 107.3552°
argument of perigee: 22.2385°
revolutions per day: 14.90271958
mean anomaly at epoch: 338.3104°
orbit number at epoch: 59277

The dashed part of the orbit path shows where the satellite is in the earth's shadow,  

DLR